Location: ????????
(38.4362°N, 22.8767°E)
Time: 18:50:47
(UTC+00:00)

Cosmos 1933 Rocket - Pass Details

Date: 23 April 2024
Orbit: 602 x 627 km, 82.5° (Epoch: 27 May)

Event Time Altitude Azimuth Distance (km) Brightness Sun altitude
Rises 02:34:46 0° 343° (NNW) 2,872 7.1 -12.9°
Reaches altitude 10° 02:37:07 10° 334° (NNW) 1,960 6.2 -12.5°
Maximum altitude 02:41:03 35° 269° (W) 988 4.1 -11.8°
Drops below altitude 10° 02:44:56 10° 204° (SSW) 1,940 5.7 -11.1°
Enters shadow 02:45:47 - 200° (SSW) 2,257 6.0 -10.9°
